Regional Weather Roundup
Issued by NWS Jackson, KY

Home | Current Version | Previous Version | Graphics & Text | Print | Product List | Glossary On
Versions: 1 2 3 4 5 6 7 8 9 10 11 12 13 14 15 16 17 18 19 20 21 22 23 24 25 26 27 28 29 30 31 32 33 34 35 36 37 38 39 40 41 42 43 44 45 46 47 48 49 50
000
ASUS43 KJKL 070110
RWRJKL

EAST KENTUCKY HOURLY WEATHER ROUNDUP
NATIONAL WEATHER SERVICE JACKSON KY
800 PM EST SAT FEB 06 2016

NOTE: "FAIR" INDICATES FEW OR NO CLOUDS BELOW 12,000 FEET WITH
NO SIGNIFICANT WEATHER AND/OR OBSTRUCTIONS TO VISIBILITY.

* THESE REPORTS ARE NOT UNDER NWS QUALITY CONTROL AND MAY NOT
  REPORT WEATHER SUCH AS PRECIPITATION AND FOG.

KYZ079-080-083-085-087-088-110-112-115-119-120-070200
...EASTERN KENTUCKY...

CITY           SKY/WX    TMP DP  RH WIND       PRES   REMARKS
JACKSON        CLEAR     43  20  39 W3        30.25F
LONDON         CLEAR     38  22  52 CALM      30.27S
SOMERSET*      CLEAR     37  23  56 CALM      30.29S
MONTICELLO*    PTCLDY    31  25  78 VRB7      30.30S WCI  24
WILLIAMSBURG*  CLEAR     41  21  45 CALM      30.27S
MIDDLESBORO*   PTCLDY    36  28  71 CALM      30.28F
HARLAN APT*    MOCLDY    37  19  48 CALM      30.27S
BIG SANDY*     CLOUDY    44  21  40 CALM      30.26S
MOREHEAD APT*  CLEAR     43  23  45 CALM      30.28F
$$

KYZ035-036-041-042-044-050-067-078-099-070200
...CENTRAL KENTUCKY...

CITY           SKY/WX    TMP DP  RH WIND       PRES   REMARKS
MT STERLING*   CLEAR     36  27  69 CALM      30.28S
DANVILLE*      CLEAR     37  23  56 CALM      30.28S
RICHMOND*      CLEAR     43  21  42 W3        30.27S
LEXINGTON      CLEAR     40  23  50 CALM      30.27S
FRANKFORT      CLEAR     36  23  59 CALM      30.26S
$$

KYZ091>093-OHZ055-061-077-WVZ005-015-034-035-042-070200
...SOUTHERN OHIO/WEST VIRGINIA...

CITY           SKY/WX    TMP DP  RH WIND       PRES   REMARKS
COVINGTON      CLEAR     36  22  56 SW3       30.24F
COLUMBUS       CLEAR     36  15  42 CALM      30.24S
DAYTON         CLEAR     34  23  64 SW3       30.23F
WILMINGTON     CLEAR     32  24  72 CALM      30.23F
HUNTINGTON     MOCLDY    43  22  43 N3        30.26S
CHARLESTON     CLOUDY    42  20  41 CALM      30.25S
PINEVILLE*       N/A     34  23  65 MISG      30.30S
BECKLEY          N/A     36  16  44 SW5       30.23S WCI  32
$$

VAZ002-007-008-TNZ017-027-036-066-071-070200
...SOUTHWEST VIRGINIA/EAST TENNESSEE...

CITY           SKY/WX    TMP DP  RH WIND       PRES   REMARKS
BRISTOL        MOCLDY    34  21  59 N5        30.27F WCI  30
KNOXVILLE      PTCLDY    41  21  44 N5        30.27S
OAK RIDGE      CLOUDY    41  24  51 CALM      30.28F
CROSSVILLE     PTCLDY    37  18  46 CALM      30.26S
NASHVILLE      MOCLDY    44  18  35 CALM      30.30R
$$

...KEY TO REMARKS...
VSB - VISIBILITY IN MILES
WCI - WIND CHILL INDEX
HX  - HEAT INDEX

$$



USA.gov is the U.S. government's official web portal to all federal, state and local government web resources and services.